RH
100 100 100 100 100 100 100 100 100 94 97 75 64 66 100 100 100 79 97 65 42 24 22 18 15 17 18 27 28 27 28 35 42 38 25 19 20 19 20 19 20 19 21 20 34
100 93 100 100 100 100 100 100 100 100 100 76 60 54 100 100 100 100 86 66 32 25 23 18 17 19 22 29 35 34 38 35 39 44 28 30 41 30 29 26 38 51 41 50 47
100 100 100 100 99 95 93 83 90 90 86 82 63 67 100 100 100 93 89 67 30 26 23 20 19 22 28 32 46 70 58 51 60 45 40 38 58 44 87 65 100 100 99 52 80
74 77 80 85 76 78 82 85 89 93 81 80 70 73 100 100 100 89 87 54 29 26 24 21 19 25 39 38 43 72 69 62 53 59 79 70 95 100 100 100 100 100 63 65 89
99 86 68 54 77 83 88 58 70 96 97 82 59 73 100 100 93 99 78 44 31 28 24 24 19 28 47 53 55 68 49 44 62 88 100 100 100 100 100 100 100 100 96 99 95
100 100 97 96 90 100 100 98 100 100 79 66 75 93 100 100 98 90 55 42 38 32 26 22 19 28 52 64 67 83 71 80 96 100 100 100 100 100 80 81 85 100 93 100 100
100 100 100 100 100 100 100 100 100 100 79 79 89 88 100 87 84 59 52 46 40 30 28 21 20 29 52 54 79 97 94 92 100 100 100 100 100 100 86 100 100 100 100 100 100
89 87 82 87 83 75 100 100 100 100 100 90 89 89 93 86 75 73 66 55 43 26 32 19 19 31 56 65 98 99 82 99 100 100 98 90 100 92 90 93 100 100 100 100 100
77 63 69 75 66 73 84 94 96 98 100 100 96 100 97 94 76 70 61 56 46 28 37 21 18 32 67 69 86 100 68 89 81 92 100 98 98 100 100 100 100 100 100 100 100
45 58 52 65 68 76 80 92 84 77 86 100 100 94 95 97 72 60 59 57 44 35 39 22 19 33 62 72 91 82 100 84 97 100 100 76 98 100 100 100 100 100 100 100 100
74 74 77 93 77 94 94 89 93 73 72 90 99 89 85 80 66 63 72 54 42 35 41 22 19 35 57 76 84 87 100 100 92 84 86 93 76 100 100 100 100 100 100 100 100
84 85 99 99 100 100 100 100 98 64 52 53 100 100 98 78 62 88 66 63 53 34 43 26 21 34 40 76 87 97 94 100 100 93 86 100 82 91 99 100 100 100 100 100 100
100 100 100 100 100 98 97 76 72 92 50 50 100 100 98 70 87 91 61 71 66 41 40 28 22 32 40 69 96 100 94 100 94 84 88 100 100 100 95 100 99 76 72 86 84
92 98 76 83 79 57 51 79 65 52 58 45 71 100 100 73 99 82 58 87 75 53 38 23 25 23 46 46 87 84 86 96 97 100 99 100 88 95 100 100 97 78 68 60 61
62 54 63 39 34 51 33 40 62 46 46 40 52 74 100 100 92 63 67 82 78 58 38 23 26 19 47 50 64 84 96 100 97 83 98 100 93 86 86 84 74 58 76 72 71
34 42 31 26 33 28 36 42 44 34 40 40 46 99 100 100 82 67 66 97 78 57 39 22 22 22 32 58 57 74 92 87 100 79 97 95 98 94 88 86 83 100 82 79 75
24 29 21 28 30 29 50 65 58 44 53 45 61 68 100 100 91 67 93 100 79 48 34 21 21 27 20 56 60 61 92 78 82 91 91 99 98 100 100 100 100 100 85 80 84
26 24 26 28 28 38 54 73 95 57 77 85 93 84 79 77 76 93 100 100 70 43 36 27 23 26 22 38 59 60 78 77 95 100 100 90 100 83 97 100 85 85 80 86 78
27 22 29 31 36 39 44 46 100 100 100 100 96 100 98 84 64 88 100 99 60 49 38 28 23 26 23 21 44 63 62 76 84 94 100 95 93 89 77 83 94 100 95 94 96
20 24 29 35 53 43 39 69 100 100 100 100 100 97 100 67 65 99 100 94 67 58 43 33 27 26 25 22 22 48 58 66 78 80 83 76 75 100 93 96 87 91 100 96 80
16 23 29 33 39 36 48 79 100 100 100 100 100 100 100 77 92 100 100 87 70 63 50 39 35 25 27 25 20 21 46 64 77 83 81 86 92 83 97 91 98 95 77 58 54
12 18 28 36 31 45 58 99 100 100 100 100 100 100 100 100 100 100 100 99 93 72 58 42 34 26 26 26 24 29 23 45 63 89 100 98 98 100 100 99 100 97 48 39 44
8 16 27 37 17 51 80 91 100 100 100 100 100 100 100 100 100 100 100 100 90 73 58 45 38 26 29 26 24 39 39 22 45 57 64 61 65 50 84 96 100 71 36 54 86
7 12 24 25 26 54 99 100 100 100 100 100 100 100 100 100 100 100 100 100 85 71 50 51 42 28 30 26 29 48 52 37 22 26 31 35 28 26 54 74 76 77 92 69 60
5 8 19 22 24 66 100 100 100 90 98 100 100 100 100 100 100 100 100 99 80 64 58 54 42 31 29 25 28 62 58 58 50 38 38 37 48 50 46 92 100 100 85 54 36
4 8 13 27 31 53 100 100 100 88 97 100 100 100 100 100 100 100 100 97 78 69 64 58 46 30 35 26 28 62 50 42 47 57 64 79 84 72 72 80 94 90 62 43 35
4 7 13 24 27 40 71 100 100 100 100 100 100 100 100 100 100 100 100 91 86 82 70 70 55 39 34 34 28 55 54 52 33 22 32 34 34 29 35 44 46 43 36 48 68
Wind_Speed
61 62 59 59 59 60 59 56 56 54 54 58 55 55 58 65 69 72 72 77 79 82 83 83 71 62 54 43 29 17 18 20 21 20 23 29 28 31 34 39 40 42 46 46 44
60 61 62 52 51 53 54 56 56 54 52 56 54 60 58 65 68 71 70 74 78 79 83 81 72 64 57 40 19 12 17 21 19 18 21 25 27 29 31 33 32 40 43 43 35
59 59 57 57 63 60 54 58 59 57 58 56 58 58 57 62 66 67 67 72 73 78 83 80 72 63 57 35 11 10 19 19 16 14 22 26 24 23 23 30 34 39 36 29 34
62 65 65 61 60 60 59 60 59 59 59 60 57 56 58 58 61 62 66 68 73 77 79 77 68 57 52 30 11 8 13 13 13 17 18 25 25 25 23 20 33 32 25 28 29
65 61 63 66 58 60 63 64 62 57 56 58 57 54 55 54 60 60 64 67 69 76 76 74 64 53 42 20 10 1 3 10 18 22 25 30 30 26 27 22 33 37 32 29 26
53 50 54 52 55 55 53 57 57 57 59 57 55 54 52 55 58 60 65 66 68 74 73 73 57 48 31 17 10 2 8 15 26 22 27 31 32 31 33 30 31 37 38 31 30
54 49 47 47 45 51 48 49 56 58 57 59 55 55 55 56 59 60 63 65 70 69 70 67 50 42 25 14 4 3 12 20 23 24 31 27 25 27 28 26 28 35 34 27 28
47 43 43 46 44 48 48 47 50 53 55 57 57 57 58 58 61 61 61 64 65 66 68 65 47 39 24 9 2 8 10 17 19 22 20 20 24 20 18 19 18 22 29 35 36
57 55 62 58 59 59 46 49 51 51 47 49 52 54 54 53 55 56 58 60 61 63 66 63 46 37 22 9 6 7 7 9 13 20 15 16 19 21 21 18 20 22 32 37 37
64 66 62 67 64 53 49 54 58 53 49 52 50 50 52 50 52 56 56 56 57 59 64 59 42 32 20 10 13 8 10 7 12 15 15 17 23 24 24 21 26 26 28 33 39
71 67 67 65 67 67 59 61 61 62 62 58 57 52 50 49 52 55 54 53 55 56 59 55 40 28 17 14 10 10 11 12 13 17 20 26 20 30 26 26 20 25 28 34 40
77 75 71 70 72 76 76 68 71 64 67 72 58 50 48 50 50 52 51 50 52 54 54 53 42 25 18 11 11 11 12 11 15 19 16 20 18 29 27 28 21 23 29 24 23
82 81 86 81 88 90 84 86 82 81 73 68 53 48 48 50 45 46 47 47 50 54 52 53 41 22 20 10 11 14 16 19 17 20 17 24 23 27 29 26 26 29 30 33 30
102 102 100 100 100 100 100 102 91 90 83 72 54 54 42 44 45 46 46 45 48 53 49 48 41 23 21 16 11 12 15 18 21 24 24 18 21 28 29 29 26 30 25 29 30
116 110 113 115 109 107 103 100 97 88 88 73 60 49 52 48 48 47 44 44 46 48 48 45 45 25 18 20 12 12 15 15 19 20 25 29 22 24 25 27 29 31 28 29 33
115 117 108 99 98 99 95 94 86 82 72 65 58 50 54 53 49 45 43 44 44 42 44 44 40 29 19 18 15 15 14 14 18 21 20 23 29 25 26 25 26 28 29 29 31
101 95 90 91 92 89 84 79 73 67 63 58 52 53 54 50 45 40 42 41 39 39 39 41 41 37 19 20 20 18 16 16 19 22 23 21 22 21 24 26 27 30 30 32 33
96 90 86 88 91 84 86 82 69 62 56 52 53 54 50 48 39 40 42 39 36 37 36 42 40 41 23 20 23 19 17 18 22 25 25 26 27 26 26 27 26 28 28 31 35
94 89 84 87 91 88 91 82 65 58 54 53 52 50 48 44 42 41 44 36 36 36 37 41 40 41 29 21 24 23 19 17 21 25 29 28 28 29 28 30 29 32 34 34 33
93 90 82 92 92 92 83 76 69 69 58 57 54 49 47 42 43 44 43 37 37 36 38 41 40 39 41 25 21 26 23 18 21 25 28 30 29 32 30 33 30 30 33 36 35
95 90 83 91 95 93 78 75 71 71 65 64 54 50 56 44 44 46 38 34 35 37 41 45 40 40 40 31 22 22 27 23 22 24 27 27 30 29 31 32 31 32 33 35 35
91 84 85 92 93 84 79 76 75 75 71 66 59 55 54 49 47 43 39 41 40 38 41 43 45 43 39 35 21 18 26 25 22 26 27 29 35 32 33 35 33 35 36 33 30
88 84 89 95 82 79 78 78 79 76 73 67 59 56 56 52 49 45 46 42 42 40 42 44 45 42 42 34 24 20 23 27 30 32 34 32 37 29 32 34 35 38 33 30 29
88 91 93 86 72 80 81 74 78 76 74 66 61 57 57 48 49 45 43 41 44 40 43 42 45 43 39 33 21 20 22 25 28 29 31 34 31 25 26 31 30 31 27 30 28
85 88 83 76 68 75 77 76 81 80 75 65 62 58 57 54 51 47 45 46 45 43 41 44 45 42 38 33 25 22 23 21 21 23 27 29 27 25 25 24 29 30 30 29 29
79 81 79 78 77 82 82 73 72 81 78 68 61 61 61 57 54 50 49 48 45 43 42 47 46 39 37 34 29 21 22 25 27 25 25 26 29 29 27 26 26 29 31 34 34
69 74 76 82 79 79 77 66 63 73 74 69 67 65 59 57 58 57 51 45 43 43 44 43 47 40 37 34 28 25 30 27 27 23 24 27 28 27 26 28 28 31 35 36 38
Wind_Direction
268 268 272 273 275 278 280 284 284 286 286 288 291 299 303 298 304 308 313 314 320 326 331 339 337 333 335 320 302 287 266 262 259 250 227 216 209 209 207 213 218 224 229 231 234
261 261 265 268 272 276 276 278 282 286 284 285 293 300 304 299 304 307 312 314 320 327 332 339 337 333 335 327 310 285 268 263 259 241 208 197 193 196 198 203 209 218 222 224 230
267 268 270 273 273 271 272 275 278 281 284 289 293 298 304 300 302 306 312 315 322 328 333 340 337 332 335 331 312 279 265 264 254 219 184 185 183 190 189 196 201 210 209 225 229
265 267 272 277 280 277 277 281 282 281 282 284 293 297 300 300 301 306 310 318 322 327 334 339 336 332 333 334 315 273 257 242 202 175 170 179 166 176 181 186 198 206 213 211 209
269 272 272 270 276 273 274 276 279 279 283 286 290 295 300 299 300 304 312 318 323 328 334 338 335 332 332 335 329 14 204 177 161 153 155 159 160 174 189 190 205 208 209 203 211
263 269 271 271 272 271 274 278 277 276 283 284 290 290 292 295 298 306 309 316 321 327 333 338 334 331 333 329 320 72 139 150 151 150 166 171 174 185 192 204 203 207 216 209 217
265 262 262 266 268 271 276 278 278 279 282 285 287 285 288 292 297 301 308 315 319 326 334 339 334 330 331 323 335 159 130 152 155 165 179 176 179 194 198 204 206 213 211 208 215
260 265 269 279 273 285 277 280 281 284 281 283 286 283 284 290 297 303 308 315 319 327 334 341 335 329 332 317 243 249 151 154 180 178 176 180 181 200 216 208 199 207 202 196 202
256 267 267 273 277 285 278 286 282 281 286 282 282 281 286 293 297 302 308 314 319 326 332 339 334 331 332 316 206 252 235 204 182 192 198 196 190 205 218 209 208 210 208 198 205
257 268 271 273 274 273 271 286 287 291 291 287 285 284 287 289 296 299 308 313 317 324 330 339 333 330 329 308 257 255 284 257 209 219 218 206 202 210 214 216 209 213 221 209 208
257 257 264 266 272 273 269 276 277 279 292 289 285 286 286 288 293 300 305 313 317 324 329 339 334 325 322 308 269 257 258 259 231 232 220 222 214 208 215 210 219 211 230 234 220
256 257 259 264 266 270 273 272 275 277 283 292 280 280 282 287 293 299 305 311 315 322 329 335 334 324 318 313 262 256 258 264 244 238 220 230 229 213 213 216 233 226 227 244 252
255 257 263 264 269 272 270 271 273 273 274 282 274 275 284 284 293 297 304 309 313 321 327 335 334 320 306 306 275 253 250 247 244 239 227 210 223 207 212 227 235 234 236 243 257
256 260 261 263 265 267 268 269 269 274 277 278 275 279 275 286 288 293 299 304 311 318 328 336 337 312 304 289 283 274 257 256 248 240 233 230 232 225 221 230 247 244 248 250 253
258 258 259 268 264 263 266 262 266 269 270 271 276 270 264 274 281 290 294 299 308 313 324 330 336 315 308 292 277 283 269 263 253 252 236 230 228 229 230 239 253 259 261 264 255
259 259 259 258 253 256 254 256 258 261 263 264 268 264 262 270 278 285 290 294 302 309 324 331 333 323 298 285 262 254 257 248 234 236 231 241 242 248 245 255 261 267 272 271 271
253 250 252 249 246 245 246 245 244 253 250 258 256 260 261 267 272 280 284 289 298 307 322 325 331 330 298 279 271 262 249 247 231 230 233 232 236 243 250 255 258 262 268 275 272
246 246 245 243 240 237 237 237 239 237 242 243 249 256 259 264 271 273 281 288 294 302 314 320 327 330 304 273 276 275 257 244 229 230 233 235 240 248 249 256 263 274 270 276 275
239 240 237 237 237 234 233 233 231 229 232 243 245 245 256 261 263 271 278 283 290 299 307 317 324 325 322 281 265 269 263 249 239 229 231 236 242 251 249 256 263 270 273 278 274
235 234 231 233 233 231 232 223 223 229 225 233 242 247 249 254 264 265 272 277 286 295 304 313 321 317 328 296 269 260 262 250 238 242 244 245 245 249 254 258 259 260 266 270 267
230 228 226 229 230 231 224 219 220 226 221 225 231 239 244 257 256 258 265 273 283 291 300 308 311 316 316 314 285 271 262 253 243 240 244 247 252 253 257 257 262 267 271 271 276
227 221 223 226 229 226 220 217 217 224 222 223 227 235 244 245 251 253 265 273 280 288 294 303 309 315 314 316 283 267 259 249 245 243 244 243 249 247 254 259 259 266 269 269 265
223 217 217 221 225 219 218 218 218 223 224 224 228 233 241 245 248 252 262 270 276 283 291 298 305 310 320 317 284 275 279 261 241 243 245 247 249 249 254 255 259 267 265 263 258
220 216 214 219 217 213 215 218 218 223 224 226 228 232 237 241 245 252 260 267 273 279 288 295 301 309 318 322 291 273 275 269 259 255 255 258 261 264 257 254 260 261 263 262 260
221 217 212 215 216 212 212 217 217 219 222 223 226 229 236 241 246 251 256 262 269 276 283 291 298 307 313 317 297 272 275 271 263 259 255 262 261 261 243 245 255 261 263 261 263
217 215 210 206 210 208 211 216 220 221 221 224 225 230 234 241 246 249 254 259 266 273 282 287 296 305 310 318 313 270 271 264 260 255 256 256 257 257 262 260 257 260 267 269 266
211 213 207 202 209 210 209 210 217 221 223 225 224 229 232 237 242 247 252 256 261 269 278 285 292 301 304 310 311 262 253 261 266 267 261 260 259 266 259 256 257 259 265 260 258